Time,TemperatureF,DewpointF,PressureIn,WindDirection,WindDirectionDegrees,WindSpeedMPH,WindSpeedGustMPH,Humidity,HourlyPrecipIn,Conditions,Clouds,dailyrainin,SoftwareType,DateUTC
2013-05-31 00:01:00,63.4,61.3,30.02,SW,221,4.0,12.0,93,0.00,,---,0.00,VWS V14.01,2013-05-31 04:01:00,
2013-05-31 00:16:00,63.4,61.3,30.02,West,262,9.0,14.0,93,0.00,,---,0.00,VWS V14.01,2013-05-31 04:16:00,
2013-05-31 00:31:00,63.1,61.0,30.02,SSW,213,6.0,11.0,93,0.00,,---,0.00,VWS V14.01,2013-05-31 04:31:00,
2013-05-31 00:46:00,62.5,60.5,30.02,WSW,246,3.0,10.0,93,0.00,,---,0.00,VWS V14.01,2013-05-31 04:46:00,
2013-05-31 01:01:00,62.0,60.3,30.02,SSW,213,4.0,10.0,94,0.00,,---,0.00,VWS V14.01,2013-05-31 05:01:00,
2013-05-31 01:16:00,62.0,60.3,30.02,West,261,7.0,11.0,94,0.00,,---,0.00,VWS V14.01,2013-05-31 05:16:00,
2013-05-31 01:31:00,62.2,60.5,30.02,West,263,6.0,12.0,94,0.00,,---,0.00,VWS V14.01,2013-05-31 05:31:00,
2013-05-31 01:46:00,62.3,60.6,30.02,WSW,251,10.0,11.0,94,0.00,,---,0.00,VWS V14.01,2013-05-31 05:46:00,
2013-05-31 02:01:00,62.2,60.5,30.02,West,271,4.0,10.0,94,0.00,,---,0.00,VWS V14.01,2013-05-31 06:01:00,
2013-05-31 02:16:00,62.2,60.5,30.02,WSW,248,6.0,11.0,94,0.00,,---,0.00,VWS V14.01,2013-05-31 06:16:00,
2013-05-31 02:31:00,62.3,60.6,30.01,West,271,7.0,12.0,94,0.00,,---,0.00,VWS V14.01,2013-05-31 06:31:00,
2013-05-31 02:46:00,62.5,60.8,30.01,West,269,3.0,11.0,94,0.00,,---,0.00,VWS V14.01,2013-05-31 06:46:00,
2013-05-31 03:01:00,62.5,60.8,30.01,West,272,9.0,10.0,94,0.00,,---,0.00,VWS V14.01,2013-05-31 07:01:00,
2013-05-31 03:16:00,62.3,60.6,30.01,WSW,244,4.0,12.0,94,0.00,,---,0.00,VWS V14.01,2013-05-31 07:16:00,
2013-05-31 03:31:00,62.3,60.6,30.01,WSW,257,7.0,11.0,94,0.00,,---,0.00,VWS V14.01,2013-05-31 07:31:00,
2013-05-31 03:46:00,62.2,60.5,30.01,West,268,11.0,12.0,94,0.00,,---,0.00,VWS V14.01,2013-05-31 07:46:00,
2013-05-31 04:01:00,62.1,60.7,30.01,West,263,6.0,12.0,95,0.00,,---,0.00,VWS V14.01,2013-05-31 08:01:00,
2013-05-31 04:16:00,62.0,60.6,30.01,West,262,6.0,13.0,95,0.00,,---,0.00,VWS V14.01,2013-05-31 08:16:00,
2013-05-31 04:31:00,61.9,60.2,30.02,WSW,252,6.0,12.0,94,0.00,,---,0.00,VWS V14.01,2013-05-31 08:31:00,
2013-05-31 04:46:00,61.8,60.4,30.02,West,266,4.0,12.0,95,0.00,,---,0.00,VWS V14.01,2013-05-31 08:46:00,
2013-05-31 05:01:00,61.7,60.3,30.02,WSW,245,7.0,10.0,95,0.00,,---,0.00,VWS V14.01,2013-05-31 09:01:00,
2013-05-31 05:16:00,61.7,60.3,30.01,West,262,6.0,10.0,95,0.00,,---,0.00,VWS V14.01,2013-05-31 09:16:00,
2013-05-31 05:31:00,61.9,60.5,30.02,WSW,257,9.0,11.0,95,0.00,,---,0.00,VWS V14.01,2013-05-31 09:31:00,
2013-05-31 05:46:00,62.1,60.7,30.03,West,261,7.0,11.0,95,0.00,,---,0.00,VWS V14.01,2013-05-31 09:46:00,
2013-05-31 06:01:00,62.3,60.8,30.03,West,259,6.0,11.0,95,0.00,,---,0.00,VWS V14.01,2013-05-31 10:01:00,
2013-05-31 06:16:00,62.6,61.2,30.03,West,261,6.0,10.0,95,0.00,,---,0.00,VWS V14.01,2013-05-31 10:16:00,
2013-05-31 06:31:00,62.9,61.2,30.04,WSW,255,5.0,10.0,94,0.00,,---,0.00,VWS V14.01,2013-05-31 10:31:00,
2013-05-31 06:46:00,63.2,61.5,30.04,WSW,252,8.0,10.0,94,0.00,,---,0.00,VWS V14.01,2013-05-31 10:46:00,
2013-05-31 07:01:00,63.7,61.6,30.04,West,269,8.0,10.0,93,0.00,,---,0.00,VWS V14.01,2013-05-31 11:01:00,
2013-05-31 07:16:00,64.0,61.9,30.04,West,277,5.0,10.0,93,0.00,,---,0.00,VWS V14.01,2013-05-31 11:16:00,
2013-05-31 07:31:00,64.4,62.0,30.04,West,259,5.0,9.0,92,0.00,,---,0.00,VWS V14.01,2013-05-31 11:31:00,
2013-05-31 07:46:00,64.7,62.3,30.04,West,278,6.0,10.0,92,0.00,,---,0.00,VWS V14.01,2013-05-31 11:46:00,
2013-05-31 08:01:00,65.4,62.4,30.05,West,276,7.0,11.0,90,0.00,,---,0.00,VWS V14.01,2013-05-31 12:01:00,
2013-05-31 08:16:00,65.8,63.1,30.05,West,278,9.0,10.0,91,0.00,,---,0.00,VWS V14.01,2013-05-31 12:16:00,
2013-05-31 08:31:00,66.7,63.7,30.05,West,271,9.0,10.0,90,0.00,,---,0.00,VWS V14.01,2013-05-31 12:31:00,
2013-05-31 08:46:00,67.7,64.0,30.05,West,261,5.0,9.0,88,0.00,,---,0.00,VWS V14.01,2013-05-31 12:46:00,
2013-05-31 09:01:00,67.9,63.9,30.05,West,281,7.0,10.0,87,0.00,,---,0.00,VWS V14.01,2013-05-31 13:01:00,
2013-05-31 09:16:00,68.4,63.7,30.05,West,259,9.0,11.0,85,0.00,,---,0.00,VWS V14.01,2013-05-31 13:16:00,
2013-05-31 09:31:00,68.5,63.8,30.04,WSW,251,3.0,11.0,85,0.00,,---,0.00,VWS V14.01,2013-05-31 13:31:00,
2013-05-31 09:46:00,69.2,64.5,30.04,NW,304,5.0,10.0,85,0.00,,---,0.00,VWS V14.01,2013-05-31 13:46:00,
2013-05-31 10:01:00,69.4,64.7,30.04,West,279,9.0,10.0,85,0.00,,---,0.00,VWS V14.01,2013-05-31 14:01:00,
2013-05-31 10:16:00,69.1,64.1,30.04,WSW,241,8.0,10.0,84,0.00,,---,0.00,VWS V14.01,2013-05-31 14:16:00,
2013-05-31 10:31:00,68.9,63.9,30.03,West,277,7.0,11.0,84,0.00,,---,0.00,VWS V14.01,2013-05-31 14:31:00,
2013-05-31 10:46:00,69.3,64.6,30.04,West,275,9.0,10.0,85,0.00,,---,0.00,VWS V14.01,2013-05-31 14:46:00,
2013-05-31 11:01:00,70.3,64.9,30.03,WSW,240,8.0,11.0,83,0.00,,---,0.00,VWS V14.01,2013-05-31 15:01:00,
2013-05-31 11:16:00,70.8,64.7,30.04,WSW,247,8.0,13.0,81,0.00,,---,0.00,VWS V14.01,2013-05-31 15:16:00,
2013-05-31 11:31:00,70.9,64.8,30.03,West,267,10.0,14.0,81,0.00,,---,0.00,VWS V14.01,2013-05-31 15:31:00,
2013-05-31 11:46:00,70.0,64.3,30.03,West,262,11.0,13.0,82,0.00,,---,0.00,VWS V14.01,2013-05-31 15:46:00,
2013-05-31 12:01:00,70.4,64.7,30.03,WSW,252,8.0,13.0,82,0.00,,---,0.00,VWS V14.01,2013-05-31 16:01:00,
2013-05-31 12:16:00,70.7,64.6,30.03,WSW,258,8.0,13.0,81,0.00,,---,0.00,VWS V14.01,2013-05-31 16:16:00,
2013-05-31 12:31:00,71.7,65.6,30.03,WSW,254,10.0,14.0,81,0.00,,---,0.00,VWS V14.01,2013-05-31 16:31:00,
2013-05-31 12:46:00,70.8,64.7,30.03,West,263,8.0,14.0,81,0.00,,---,0.00,VWS V14.01,2013-05-31 16:46:00,
2013-05-31 13:01:00,70.7,64.9,30.02,West,269,9.0,16.0,82,0.00,,---,0.00,VWS V14.01,2013-05-31 17:01:00,
2013-05-31 13:16:00,71.4,65.3,30.02,West,263,8.0,16.0,81,0.00,,---,0.00,VWS V14.01,2013-05-31 17:16:00,
2013-05-31 13:31:00,72.5,66.0,30.02,SW,220,4.0,16.0,80,0.00,,---,0.00,VWS V14.01,2013-05-31 17:31:00,
2013-05-31 13:46:00,73.9,66.6,30.01,SSW,209,9.0,12.0,78,0.00,,---,0.00,VWS V14.01,2013-05-31 17:46:00,
2013-05-31 14:01:00,74.4,66.7,30.01,WSW,242,5.0,12.0,77,0.00,,---,0.00,VWS V14.01,2013-05-31 18:01:00,
2013-05-31 14:16:00,73.1,65.8,30.01,West,269,10.0,15.0,78,0.00,,---,0.00,VWS V14.01,2013-05-31 18:16:00,
2013-05-31 14:31:00,72.3,65.4,30.00,WSW,252,1.0,13.0,79,0.00,,---,0.00,VWS V14.01,2013-05-31 18:31:00,
2013-05-31 14:46:00,73.0,65.7,30.00,West,259,11.0,13.0,78,0.00,,---,0.00,VWS V14.01,2013-05-31 18:46:00,
2013-05-31 15:01:00,72.2,65.7,30.00,WSW,248,6.0,15.0,80,0.00,,---,0.00,VWS V14.01,2013-05-31 19:01:00,
2013-05-31 15:16:00,72.9,65.7,29.99,SW,227,2.0,13.0,78,0.00,,---,0.00,VWS V14.01,2013-05-31 19:16:00,
2013-05-31 15:31:00,70.8,64.7,29.99,WSW,250,7.0,16.0,81,0.00,,---,0.00,VWS V14.01,2013-05-31 19:31:00,
2013-05-31 15:46:00,69.7,63.6,29.99,West,261,6.0,15.0,81,0.00,,---,0.00,VWS V14.01,2013-05-31 19:46:00,
2013-05-31 16:01:00,70.2,64.4,29.99,SW,233,6.0,18.0,82,0.00,,---,0.00,VWS V14.01,2013-05-31 20:01:00,
2013-05-31 16:16:00,70.0,63.9,29.98,West,269,9.0,13.0,81,0.00,,---,0.00,VWS V14.01,2013-05-31 20:16:00,
2013-05-31 16:31:00,69.4,64.4,29.98,West,271,11.0,14.0,84,0.00,,---,0.00,VWS V14.01,2013-05-31 20:31:00,
2013-05-31 16:46:00,70.0,64.3,29.98,WSW,239,5.0,16.0,82,0.00,,---,0.00,VWS V14.01,2013-05-31 20:46:00,
2013-05-31 17:01:00,69.3,63.9,29.98,SW,221,3.0,15.0,83,0.00,,---,0.00,VWS V14.01,2013-05-31 21:01:00,
2013-05-31 17:16:00,69.7,64.0,29.98,SW,235,7.0,13.0,82,0.00,,---,0.00,VWS V14.01,2013-05-31 21:16:00,
2013-05-31 17:31:00,69.0,62.9,29.97,WSW,242,6.0,14.0,81,0.00,,---,0.00,VWS V14.01,2013-05-31 21:31:00,
2013-05-31 17:46:00,68.6,63.6,29.97,WSW,250,3.0,13.0,84,0.00,,---,0.00,VWS V14.01,2013-05-31 21:46:00,
2013-05-31 18:01:00,68.2,63.5,29.96,West,262,7.0,13.0,85,0.00,,---,0.00,VWS V14.01,2013-05-31 22:01:00,
2013-05-31 18:16:00,69.2,64.5,29.95,WSW,251,5.0,12.0,85,0.00,,---,0.00,VWS V14.01,2013-05-31 22:16:00,
2013-05-31 18:31:00,68.8,64.1,29.95,West,262,9.0,14.0,85,0.00,,---,0.00,VWS V14.01,2013-05-31 22:31:00,
2013-05-31 18:46:00,68.0,63.7,29.95,West,259,6.0,16.0,86,0.00,,---,0.00,VWS V14.01,2013-05-31 22:46:00,
2013-05-31 19:01:00,66.6,62.9,29.95,WSW,255,9.0,15.0,88,0.00,,---,0.00,VWS V14.01,2013-05-31 23:01:00,
2013-05-31 19:16:00,66.5,63.2,29.95,WSW,246,13.0,15.0,89,0.00,,---,0.00,VWS V14.01,2013-05-31 23:16:00,
2013-05-31 19:31:00,65.8,62.8,29.95,SW,219,2.0,14.0,90,0.00,,---,0.00,VWS V14.01,2013-05-31 23:31:00,
2013-05-31 19:46:00,65.2,62.5,29.95,WSW,244,4.0,14.0,91,0.00,,---,0.00,VWS V14.01,2013-05-31 23:46:00,
2013-05-31 20:01:00,64.7,62.0,29.95,SW,231,5.0,12.0,91,0.00,,---,0.00,VWS V14.01,2013-06-01 00:01:00,
2013-05-31 20:16:00,64.5,62.1,29.95,WSW,242,5.0,14.0,92,0.00,,---,0.00,VWS V14.01,2013-06-01 00:16:00,
2013-05-31 20:31:00,64.3,61.9,29.96,WSW,252,3.0,14.0,92,0.00,,---,0.00,VWS V14.01,2013-06-01 00:31:00,
2013-05-31 20:46:00,64.0,61.6,29.96,WSW,245,10.0,14.0,92,0.00,,---,0.00,VWS V14.01,2013-06-01 00:46:00,
2013-05-31 21:01:00,64.0,61.9,29.97,West,259,7.0,13.0,93,0.00,,---,0.00,VWS V14.01,2013-06-01 01:01:00,
2013-05-31 21:16:00,64.4,62.3,29.97,WSW,250,5.0,15.0,93,0.00,,---,0.00,VWS V14.01,2013-06-01 01:16:00,
2013-05-31 21:31:00,64.6,62.5,29.97,West,269,6.0,12.0,93,0.00,,---,0.00,VWS V14.01,2013-06-01 01:31:00,
2013-05-31 21:46:00,64.5,62.1,29.97,West,261,4.0,13.0,92,0.00,,---,0.00,VWS V14.01,2013-06-01 01:46:00,
2013-05-31 22:01:00,64.8,62.4,29.97,SW,232,7.0,14.0,92,0.00,,---,0.00,VWS V14.01,2013-06-01 02:01:00,
2013-05-31 22:16:00,65.1,62.4,29.97,West,266,7.0,13.0,91,0.00,,---,0.00,VWS V14.01,2013-06-01 02:16:00,
2013-05-31 22:31:00,65.0,62.3,29.97,WSW,252,8.0,15.0,91,0.00,,---,0.00,VWS V14.01,2013-06-01 02:31:00,
2013-05-31 22:46:00,65.5,62.8,29.97,West,262,8.0,14.0,91,0.00,,---,0.00,VWS V14.01,2013-06-01 02:46:00,
2013-05-31 23:01:00,65.0,62.3,29.97,SW,221,5.0,11.0,91,0.00,,---,0.00,VWS V14.01,2013-06-01 03:01:00,
2013-05-31 23:16:00,64.4,62.0,29.97,SW,229,4.0,9.0,92,0.00,,---,0.00,VWS V14.01,2013-06-01 03:16:00,
2013-05-31 23:31:00,64.2,62.1,29.97,WSW,246,4.0,10.0,93,0.00,,---,0.00,VWS V14.01,2013-06-01 03:31:00,
2013-05-31 23:46:00,63.8,61.7,29.97,SW,218,7.0,14.0,93,0.00,,---,0.00,VWS V14.01,2013-06-01 03:46:00,